This is the latest recevied weather packets stored in our database for station/object EA3CTN-13. If no packets are shown the sender has not sent any weather packets the latest 10 day(s).
| Time | Temp. | Humidity | Pressure | Rain* | Wind** | Luminosity | Snow |
|---|---|---|---|---|---|---|---|
| 1777299324 | 23.89° C | 31% | 1017.6 hPa | - | - | - | - |
| 1777298844 | 23.89° C | 33% | 1017.7 hPa | - | - | - | - |
| 1777298364 | 23.89° C | 38% | 1017.9 hPa | - | - | - | - |
| 1777297884 | 24.44° C | 38% | 1018 hPa | - | - | - | - |
| 1777297404 | 24.44° C | 36% | 1018.2 hPa | - | - | - | - |
| 1777296925 | 24.44° C | 38% | 1018.2 hPa | - | - | - | - |
| 1777296444 | 23.89° C | 40% | 1018.3 hPa | - | - | - | - |
| 1777295964 | 24.44° C | 39% | 1018.4 hPa | - | - | - | - |
| 1777295484 | 24.44° C | 40% | 1018.5 hPa | - | - | - | - |
| 1777295004 | 24.44° C | 37% | 1018.5 hPa | - | - | - | - |
| 1777294524 | 24.44° C | 38% | 1018.4 hPa | - | - | - | - |
| 1777294044 | 24.44° C | 38% | 1018.4 hPa | - | - | - | - |
| 1777293564 | 24.44° C | 39% | 1018.5 hPa | - | - | - | - |
| 1777293083 | 24.44° C | 35% | 1018.5 hPa | - | - | - | - |
| 1777292604 | 24.44° C | 38% | 1018.5 hPa | - | - | - | - |
| 1777292124 | 24.44° C | 37% | 1018.7 hPa | - | - | - | - |
| 1777291645 | 24.44° C | 38% | 1018.8 hPa | - | - | - | - |
| 1777291164 | 24.44° C | 39% | 1018.8 hPa | - | - | - | - |
| 1777290684 | 24.44° C | 37% | 1018.9 hPa | - | - | - | - |
| 1777290198 | 24.44° C | 38% | 1019 hPa | - | - | - | - |
| 1777289724 | 24.44° C | 38% | 1019.1 hPa | - | - | - | - |
| 1777289244 | 24.44° C | 39% | 1019 hPa | - | - | - | - |
| 1777288764 | 24.44° C | 40% | 1019.2 hPa | - | - | - | - |
| 1777288283 | 24.44° C | 41% | 1019.3 hPa | - | - | - | - |
| 1777287806 | 24.44° C | 41% | 1019.3 hPa | - | - | - | - |
* Rain since midnight (hover to see other rain measurements)
** Current wind speed in m/s (hover to see current wind gust speed)